Challenge de la Province de Liège

La Belle Iloise - Liège (10.50 km)

dimanche 11 octobre 2020

Le classement original se trouve sur : http://www.cjpl.eu/v2019/        
CHALLENGE DE LA PROVINCE DE LIEGE
LA BELLE ILOISE - LIÈGE
DISTANCE : 10.50 km
dimanche 11 octobre 2020
 
Place dos NOM EQUIPE Catégorie Pl/cat temps temps/km Vitesse
1 1331 GUY MAAS - SÉNIOR 1 0:08:32 00:49 73.82
2 1318 LAURENT SPANU - SÉNIOR 2 0:08:51 00:51 71.18
3 262 MIKAIL DEMIRKAZAN HERVE SÉNIOR 3 0:09:13 00:53 68.35
4 823 PATRICK PHILIPPE - VÉTÉRAN 2 1 0:10:14 00:58 61.56
5 1349 GUIDO PENDERS - VÉTÉRAN 1 1 0:10:40 01:01 59.06
6 481 ARNAUD LARUE - XXX   0:10:56 01:02 57.62
7 717 LOÏC DELVAUX - ESPOIR HOMME 1 0:11:05 01:03 56.84
8 1325 PASCAL VAN MARCKE - VÉTÉRAN 2 2 0:11:08 01:04 56.58
9 1240 LUDOVIC RICHEL - SÉNIOR 4 0:11:52 01:08 53.08
10 818 IRÈNE TOSI - DAME 1 0:15:23 01:28 40.95
11 1126 ROBBE HERTOGEN - XXX   0:40:29 03:51 15.56
12 265 NICOLAS DEMONTY - SÉNIOR 5 0:40:35 03:52 15.52
13 41 HERVÉ DEBATTY - VÉTÉRAN 1 2 0:40:54 03:54 15.40
14 115 ALAIN GUISSART - VÉTÉRAN 1 3 0:40:55 03:54 15.40
15 701 DANIEL DEBRA - VÉTÉRAN 1 4 0:41:38 03:58 15.13
16 322 RAPHAËL FISCHER TEAM SOMJA SÉNIOR 6 0:41:48 03:59 15.07
17 1348 JULIEN CHOPART - SÉNIOR 7 0:41:52 03:59 15.05
18 1173 ROSARIO LOFORTE - VÉTÉRAN 1 5 0:42:02 04:00 14.99
19 1155 PASCAL LAMBOTTE - VÉTÉRAN 2 3 0:42:03 04:00 14.98
20 68 JEAN-MARIE CHUDYBA RUN IN LIEGE VÉTÉRAN 2 4 0:42:36 04:03 14.79
21 1077 VÉRONIQUE FETTWEIS - DAME 2 0:42:46 04:04 14.73
22 722 ERSEN DEMIRCI - SÉNIOR 8 0:43:01 04:06 14.64
23 1114 GILLES HENDRICÉ - VÉTÉRAN 2 5 0:43:07 04:06 14.61
24 343 YVES GARIN TEAM SOMJA VÉTÉRAN 1 6 0:43:09 04:07 14.60
25 133 CHRISTOPHE SCHOLZEN TEAM SOMJA SÉNIOR 9 0:43:10 04:07 14.59
26 1315 NICOLAS PARMENTIER - SÉNIOR 10 0:43:40 04:10 14.43
27 1118 RAFAEL HERNIK - XXX   0:43:58 04:11 14.33
28 321 ROLAND EVRARD - VÉTÉRAN 1 7 0:44:01 04:12 14.31
29 630 MARGAUX BOVY - DAME 3 0:44:15 04:13 14.24
30 66 PATRICK DAMBLON - VÉTÉRAN 2 6 0:44:34 04:15 14.13
31 1265 THIERRY SONTAG - VÉTÉRAN 1 8 0:45:10 04:18 13.95
32 1322 SÉBASTIEN HANSEZ - SÉNIOR 11 0:45:16 04:19 13.92
33 990 ERIC PASQUASY - VÉTÉRAN 1 9 0:45:31 04:20 13.84
34 1328 CLAUDIA TELLINGS - DAME 4 0:45:34 04:20 13.82
35 491 MICHEL JEUKENS - VÉTÉRAN 2 7 0:45:35 04:21 13.82
36 1378 BENOIT SCHOONBROODT - VÉTÉRAN 1 10 0:45:38 04:21 13.80
37 43 BENOIT CUPPENS - VÉTÉRAN 1 11 0:46:04 04:23 13.67
38 1258 ROSARIO SCIFO - VÉTÉRAN 1 12 0:46:18 04:25 13.61
39 469 DOMINIQUE TREVISSON - VÉTÉRAN 1 13 0:46:26 04:25 13.57
40 1283 AJLA TOPALBEGOVIC - DAME 5 0:46:26 04:25 13.57
41 261 CLAUDE DELHEZ RUN IN LIEGE VÉTÉRAN 3 1 0:46:26 04:25 13.57
42 988 DANIEL MILAN - VÉTÉRAN 2 8 0:46:34 04:26 13.53
43 439 MARC PAQUAY - XXX   0:46:42 04:27 13.49
44 452 SEBASTIEN EUGÈNE - VÉTÉRAN 1 14 0:46:48 04:27 13.46
45 222 THOMAS COP - SÉNIOR 12 0:46:48 04:27 13.46
46 405 MONIQUE KERIS RUN IN LIEGE AÎNÉE2 1 0:47:13 04:30 13.34
47 63 FREDERIC DELNAYE - VÉTÉRAN 1 15 0:47:18 04:30 13.32
48 789 RODRIGUE MONTULET - SÉNIOR 13 0:47:31 04:32 13.26
49 711 ANNE-SOPHIE DELHOUGNE - DAME 6 0:47:31 04:32 13.26
50 802 ANGELO PATAWÉ - SÉNIOR 14 0:47:50 04:33 13.17
51 1157 MANON LAMBOTTE - DAME 7 0:47:56 04:34 13.14
52 341 DOMINIQUE FREDERICH - AÎNÉE2 2 0:48:00 04:34 13.12
53 123 FRANCOISE PISCART - AÎNÉE1 1 0:48:16 04:36 13.05
54 713 JEAN-FRANÇOIS DELOGE - VÉTÉRAN 1 16 0:48:23 04:37 13.02
55 406 BÉATRICE KEVELAER TEAM SOMJA AÎNÉE1 2 0:48:27 04:37 13.00
56 36 NICOLAS BYNENS JUPRELLE VÉTÉRAN 3 2 0:48:32 04:37 12.98
57 350 JEAN WEERTS - VÉTÉRAN 1 17 0:48:32 04:37 12.98
58 1327 LAURENT BONHOMME - SÉNIOR 15 0:48:34 04:38 12.97
59 251 EVELYNE CUPERS TEAM SOMJA AÎNÉE1 3 0:48:36 04:38 12.96
60 794 LOUIS ASENSIO - SÉNIOR 16 0:48:49 04:39 12.90
61 1072 RUBEN FALCON RAMIREZ - SÉNIOR 17 0:48:54 04:39 12.88
62 984 KENAN DEMERCI - VÉTÉRAN 3 3 0:48:55 04:40 12.88
63 462 JOEFREY ROUFOSSE - XXX   0:49:24 04:42 12.75
64 661 ROMUALD COOSEMANS - SÉNIOR 18 0:49:29 04:43 12.73
65 1150 OLIVIER LAHAYE - VÉTÉRAN 1 18 0:49:47 04:45 12.65
66 1138 DIDIER JORIS - VÉTÉRAN 1 19 0:50:28 04:48 12.48
67 667 CHRISTIAN COUNET - VÉTÉRAN 2 9 0:50:30 04:49 12.47
68 1291 DENIS VANHERTERYCK - SÉNIOR 19 0:50:36 04:49 12.45
69 1335 LOUIS BINET - SÉNIOR 20 0:50:49 04:50 12.40
70 486 DAMIEN BOUVY - VÉTÉRAN 1 20 0:51:01 04:52 12.35
71 120 BERNARD FERNANDEZ HERRERA - VÉTÉRAN 2 10 0:51:12 04:53 12.30
72 461 FABRICE ROCATO - VÉTÉRAN 1 21 0:51:14 04:53 12.30
73 741 MARTIAL DHEUR - VÉTÉRAN 2 11 0:51:16 04:53 12.29
74 433 JOSÉPHINE MULLER - DAME 8 0:51:20 04:53 12.27
75 1354 THOMAS CORVERS - SÉNIOR 21 0:51:25 04:54 12.25
76 219 CONSTANCE CHARLIER - DAME 9 0:51:52 04:56 12.15
77 1266 NATHALIE STEIMES - AÎNÉE1 4 0:51:55 04:57 12.13
78 1249 JONATHAN RONDEUX - SÉNIOR 22 0:52:03 04:57 12.10
79 216 MICHELLE BURHENNE RUN IN LIEGE AÎNÉE2 3 0:52:07 04:58 12.09
80 407 LAURENT KNAPEN - VÉTÉRAN 3 4 0:52:19 04:59 12.04
81 1220 FABRIZIO PEDATA - VÉTÉRAN 1 22 0:52:30 05:00 12.00
82 258 SANDRA DELREZ - AÎNÉE2 4 0:52:32 05:00 11.99
83 61 ALAIN DETHIER TEAM SOMJA VÉTÉRAN 2 12 0:52:32 05:00 11.99
84 434 CÉLINE MUNOS RUN IN LIEGE AÎNÉE1 5 0:52:46 05:02 11.94
85 255 LUDOVIC DASSY - SÉNIOR 23 0:53:11 05:04 11.84
86 1308 JOACHIM WILLIMÈS - SÉNIOR 24 0:53:37 05:06 11.75
87 829 FLORE HASTIR - DAME 10 0:53:59 05:09 11.67
88 5 RICARD MATHOT - VÉTÉRAN 3 5 0:54:21 05:11 11.59
89 639 FRANCESCA CAMPANELLA - AÎNÉE1 6 0:54:34 05:12 11.54
90 716 MARIE DELREZ - AÎNÉE2 5 0:54:45 05:13 11.51
91 1161 SIMON LEBOUTTE - SÉNIOR 25 0:54:56 05:14 11.47
92 825 BERNARD DELHOUGUE - VÉTÉRAN 2 13 0:55:04 05:15 11.44
93 1352 CELINE CORDEWENER - DAME 11 0:55:10 05:15 11.42
94 791 NADIA SPANO - DAME 12 0:55:10 05:15 11.42
95 1182 KEVIN MAGERMANS - SÉNIOR 26 0:55:21 05:16 11.38
96 1169 MARC LIBION - VÉTÉRAN 2 14 0:55:49 05:19 11.29
97 1262 ULRIC SOLHEID - SÉNIOR 27 0:56:04 05:20 11.24
98 1278 BARTHO TERRON - VÉTÉRAN 2 15 0:56:36 05:23 11.13
99 621 CHRISTINE BORRELLI - AÎNÉE1 7 0:56:46 05:24 11.10
100 474 PATRICK VOLON - VÉTÉRAN 3 6 0:56:52 05:25 11.08
101 1184 MICHEL MANCINI - VÉTÉRAN 4 1 0:57:01 05:26 11.05
102 1206 MICHÈLE NATALIS - AÎNÉE2 6 0:57:05 05:26 11.04
103 989 ROSARIO VITELLO TEAM SOMJA SÉNIOR 28 0:57:16 05:27 11.00
104 1160 CATHERINE LANGE - DAME 13 0:57:30 05:29 10.96
105 351 WILLY HERTOGEN - XXX   0:57:32 05:29 10.95
106 1259 BRUNO SIMON - VÉTÉRAN 3 7 0:57:33 05:29 10.95
107 1277 ARIELLE TANASE - AÎNÉE2 7 0:58:15 05:33 10.81
108 1250 PHILIPPE RONDEUX - VÉTÉRAN 2 16 0:58:15 05:33 10.81
109 442 ARNAUD PATOUT LGS SÉNIOR 29 0:58:15 05:33 10.81
110 1106 INGRID HAULET - AÎNÉE1 8 0:58:41 05:35 10.73
111 420 MARIE-FRANCE LISSOIR RUN IN LIEGE AÎNÉE3 1 0:58:51 05:36 10.70
112 1389 JULIE COLLIN - DAME 14 0:59:32 05:40 10.58
113 40 ALBERTO CANALES TEAM SOMJA VÉTÉRAN 3 8 0:59:36 05:41 10.57
114 1127 SOPHIE HERZET - DAME 15 0:59:45 05:41 10.54
115 428 AUDREY MATHONET - DAME 16 1:00:17 05:45 10.45
116 1235 PAULINE RADERMECKER - DAME 17 1:00:18 05:45 10.45
117 1339 PATRICIA ABAD LAMAS - AÎNÉE2 8 1:01:03 05:49 10.32
118 790 VANINA WILLEMS - DAME 18 1:01:36 05:52 10.23
119 76 GABRIELLE VAN LAETHEM - AÎNÉE1 9 1:01:40 05:52 10.22
120 77 THIERRY KALIN - VÉTÉRAN 2 17 1:02:05 05:55 10.15
121 1286 JULIE TRIPPAERS - DAME 19 1:02:54 05:59 10.01
122 445 FABRICE PETERS - VÉTÉRAN 1 23 1:03:41 06:04 9.89
123 79 DOMINIQUE LELOUP TCBM AÎNÉE2 9 1:04:13 06:07 9.81
124 815 PASCAL LEGLISE - VÉTÉRAN 3 9 1:04:28 06:08 9.77
125 488 PASCAL NIZET - VÉTÉRAN 2 18 1:04:44 06:10 9.73
126 1351 VINCENT RINALDI - SÉNIOR 30 1:05:09 06:12 9.67
127 1347 ANAÏS DEVILLE - DAME 20 1:05:09 06:12 9.67
128 1230 ROLAND PORTA - SÉNIOR 31 1:05:15 06:13 9.65
129 1234 CÉLINE RADERMECKER - DAME 21 1:05:48 06:16 9.57
130 795 DANIEL LAMI - VÉTÉRAN 3 10 1:07:55 06:28 9.28
131 793 MYRIAM BRUGMANS - AÎNÉE2 10 1:08:15 06:30 9.23
132 1162 JEAN-FRANÇOIS LEEMANS - VÉTÉRAN 2 19 1:09:11 06:35 9.11
133 1219 VANALME PAULINE - DAME 22 1:09:45 06:39 9.03
134 1108 CÉLINE HAUSMANN - DAME 23 1:11:16 06:47 8.84
135 656 LARA COLLIGNON - DAME 24 1:11:56 06:51 8.76
136 792 CARMEN GENTEN - AÎNÉE1 10 1:12:32 06:55 8.68
137 1370 PAULINE DEKKERS - DAME 25 1:13:11 06:58 8.61
138 28 SABRINA CUYX - XXX   1:13:14 06:59 8.60
139 60 DOMINIQUE NIJS RUN IN LIEGE AÎNÉE3 2 1:16:00 07:14 8.29